CST,Max TemperatureF,Mean TemperatureF,Min TemperatureF,Max Dew PointF,MeanDew PointF,Min DewpointF,Max Humidity, Mean Humidity, Min Humidity, Max Sea Level PressureIn, Mean Sea Level PressureIn, Min Sea Level PressureIn, Max VisibilityMiles, Mean VisibilityMiles, Min VisibilityMiles, Max Wind SpeedMPH, Mean Wind SpeedMPH, Max Gust SpeedMPH,PrecipitationIn, CloudCover, Events, WindDirDegrees
2013-2-1,63,50,35,43,38,30,95,65,42,30.38,30.34,30.29,10,10,7,15,8,17,0.00,1,,350
2013-2-2,59,47,35,54,39,23,100,68,50,30.38,30.29,30.18,10,10,10,10,6,,0.00,0,Rain,128
2013-2-3,67,56,44,54,46,39,100,67,37,30.25,30.18,30.12,10,10,10,14,8,16,0.00,0,Rain,319
2013-2-4,63,51,40,59,50,39,100,75,59,30.13,30.07,29.99,10,10,10,10,5,,0.00,5,Rain,114
2013-2-5,64,60,55,64,60,55,100,99,84,30.04,30.00,29.95,10,10,6,9,6,,0.37,8,Rain,66
2013-2-6,69,63,57,68,61,57,100,99,88,30.15,30.07,30.01,10,9,1,12,5,,0.00,4,Rain,81
2013-2-7,73,65,57,72,63,57,100,98,82,30.04,29.88,29.79,10,8,1,29,9,34,0.92,6,Rain,48
2013-2-8,66,58,49,66,55,50,100,100,99,30.14,30.00,29.94,10,5,0,12,5,,0.01,1,Fog-Rain,343
2013-2-9,59,52,44,57,51,45,100,87,65,30.26,30.19,30.15,10,10,9,10,6,,0.00,1,Rain,101
2013-2-10,68,59,50,68,64,51,100,100,99,30.17,30.08,30.02,10,10,8,17,11,25,0.01,8,Rain,129
2013-2-11,73,66,59,73,67,59,100,100,100,30.10,30.05,30.01,10,9,6,17,13,22,0.25,6,Rain-Thunderstorm,154
2013-2-12,69,62,56,70,66,56,100,100,100,30.31,29.89,29.78,10,10,6,17,10,25,0.00,7,Rain,137
2013-2-13,69,58,48,70,57,48,100,94,67,30.05,29.90,29.78,10,9,4,21,10,25,0.09,6,Rain,309
2013-2-14,55,46,37,47,44,37,100,90,69,30.15,30.08,30.03,10,10,10,10,8,,0.00,2,Rain,17
2013-2-15,62,48,34,54,46,34,100,77,59,30.16,30.10,30.04,10,10,10,12,7,,0.00,0,Rain,325
2013-2-16,55,46,32,46,35,23,87,63,35,30.28,30.13,30.04,10,10,10,25,13,33,0.00,2,Rain,333
2013-2-17,50,38,27,35,28,21,99,64,32,30.39,30.33,30.28,10,10,10,10,5,,0.00,0,Rain,353
2013-2-18,62,46,31,57,48,32,100,78,59,30.33,30.22,30.09,10,10,10,23,12,31,0.00,3,Rain,139
2013-2-19,69,56,41,66,60,35,100,90,47,30.20,30.07,30.01,10,9,0,24,15,36,0.60,6,Fog-Rain,251
2013-2-20,59,48,36,40,33,28,93,54,36,30.25,30.15,30.09,10,10,7,10,6,,0.00,2,Rain,31
2013-2-21,64,51,38,64,50,32,100,82,56,30.12,30.02,29.94,10,10,10,14,9,21,0.00,4,Rain,103
2013-2-22,68,66,64,66,66,64,100,100,88,29.98,29.92,29.89,10,5,0,15,8,25,0.00,8,Fog-Rain-Thunderstorm,138
2013-2-23,68,62,57,68,62,57,100,100,100,29.95,29.88,29.78,10,9,2,14,7,,0.47,7,Rain,359
2013-2-24,68,60,52,63,59,52,100,91,72,29.99,29.92,29.84,10,9,0,16,7,,0.95,7,Fog-Rain-Thunderstorm,66
2013-2-25,64,62,59,64,62,59,100,100,100,29.87,29.72,29.53,10,7,1,21,10,28,2.89,8,Rain-Thunderstorm,84
2013-2-26,66,60,52,66,57,46,100,87,69,29.92,29.66,29.53,10,8,2,21,9,31,0.26,4,Rain,240
2013-2-27,60,53,46,51,47,44,100,75,59,30.03,29.98,29.93,10,10,10,13,5,18,0.00,1,Rain,243
2013-2-28,61,54,46,51,40,37,95,63,41,30.06,30.01,29.96,10,10,10,15,9,22,0.00,4,Rain,331